SCP
0 0 0 0 0 0 0 0 0 0 0 0 0 0 -0 -0 -0 -0 -0 -0 0 0 0 0 0 0 0 0 0 0 0 0 0 0 0 0 0 0 0 0 0 0 0 0
0 0 0 0 0 0 0 0 0 0 0 0 0 0 0 -0 -0 -0 -0 -0 0 0 0 -0 -0 0 0 0 0 0 0 0 0 0 0 0 0 0 0 0 0 0 0 0
0 0 0 0 0 0 0 0 0 0 0 0 0 0 0 -0 -0 -0 -0 -0 -0 -0 0 0 -0 -0 0 0 0 0 0 0 0 0 0 0 0 0 0 0 0 0 0 0
0 0 0 0 0 0 0 0 0 0 0 0 0 0 0 -0 -0 -0 0 -0 0 0 0 0 0 0 0 0 0 0 0 0 0 0 0 0 0 0 0 0 0 0 0 0
0 0 0 0 0 0 0 0 0 0 0 0 0 0 0 0 0 -0 -0 0 0 0 0 0 0 0 0 0 0 0 0 0 0 0 0 0 0 0 0 0 0 0 0 0
0 0 0 0 0 0 0 0 0 0 0 0 0 0 0 0 0 0 0 0 0 0 0 0 0 0 0 0 0 0 0 0 0 0 0 0 0 0 0 0 0 0 0 0
0 0 0 0 0 0 0 0 0 0 0 0 0 0 0 0 0 0 0 0 0 0 0 0 0 0 0 0 0 0 0 0 0 0 0 0 0 0 0 0 0 0 0 0
0 0 0 0 0 0 0 0 0 0 0 0 0 0 0 0 0 0 0 0 0 0 0 0 0 0 0 0 0 0 0 0 0 0 0 0 0 0 0 0 0 0 0 0
0 0 0 0 0 0 0 0 0 0 0 0 0 0 0 0 0 0 0 0 0 0 0 0 0 0 0 0 0 0 0 0 0 0 0 0 0 0 0 0 0 0 0 0
0 0 0 0 0 0 0 0 0 0 0 0 0 0 0 0 0 0 0 0 0 0 0 0 0 0 0 0 0 0 0 0 0 0 0 0 0 0 0 0 0 0 0 0
0 0 0 0 0 0 0 0 0 0 0 0 0 0 0 0 0 0 0 0 0 0 0 0 0 0 0 0 0 0 0 0 0 0 0 0 0 0 0 0 0 0 0 0
0 0 0 0 0 0 0 0 0 0 0 0 0 0 0 0 0 0 0 0 0 0 0 0 0 0 0 0 0 0 0 0 0 0 0 0 0 0 0 0 0 0 0 0
0 0 0 0 0 0 0 0 0 0 0 0 0 0 0 0 0 0 0 0 0 0 0 0 0 0 0 0 0 0 0 0 0 0 0 0 0 0 0 0 0 0 0 0
0 0 0 0 0 0 0 0 0 0 0 0 0 0 0 0 0 0 0 0 0 0 0 0 0 0 0 0 0 0 0 0 0 0 0 0 0 0 0 0 0 0 0 0
0 0 0 0 0 0 0 0 0 0 0 0 0 0 0 0 0 0 0 0 0 0 0 0 0 0 0 0 0 0 0 0 0 0 0 0 0 0 0 0 0 0 0 0
0 0 0 0 0 0 0 0 0 0 0 0 0 0 0 0 0 0 0 0 0 0 0 0 0 0 0 0 0 0 0 0 0 0 0 0 0 0 0 0 0 0 0 0
0 0 0 0 0 0 0 0 0 0 0 0 0 0 0 0 0 0 0 0 0 0 0 0 0 0 0 0 0 0 0 0 0 0 0 0 0 0 0 0 0 0 0 0
0 0 0 0 0 0 0 0 0 0 0 0 0 0 0 0 0 0 0 0 0 0 0 0 0 0 0 0 0 0 0 0 0 0 0 0 0 0 0 0 0 0 0 0
0 0 0 0 0 0 0 0 0 0 0 0 0 0 0 0 0 0 0 0 0 0 0 0 0 0 0 0 0 0 0 0 0 0 0 0 0 0 0 0 0 0 0 0
0 0 0 0 0 0 0 0 0 0 0 0 0 0 0 0 0 0 0 0 0 0 0 0 0 0 0 0 0 0 0 0 0 0 0 0 0 0 0 0 0 0 0 0
0 0 0 0 0 0 0 0 0 0 0 0 0 0 0 0 0 0 0 0 0 0 0 0 0 0 0 0 0 0 0 0 0 0 0 0 0 0 0 0 0 0 0 0
0 0 0 0 0 0 0 0 0 0 0 0 0 0 0 0 0 0 0 0 0 0 0 0 0 0 0 0 0 0 0 0 0 0 0 0 0 0 0 0 0 0 0 0
0 0 0 0 0 0 0 0 0 0 0 0 0 0 0 0 0 0 0 0 0 0 0 0 0 0 0 0 0 0 0 0 0 0 0 0 0 0 0 0 0 0 0 0
0 0 0 0 0 0 0 0 -0 0 0 0 0 0 0 0 0 0 0 0 0 0 0 0 0 0 0 0 0 0 0 0 0 0 0 0 0 0 0 0 0 0 0 0
0 0 0 -0 -0 -0 -0 -0 0 0 -0 0 0 0 0 0 0 0 0 0 0 0 0 0 0 0 0 0 0 0 0 0 0 0 0 0 0 0 0 0 0 0 0 0
0 0 0 -0 -0 -0 -0 -0 0 0 0 0 0 0 0 0 0 0 0 0 0 0 0 0 0 0 0 0 0 0 0 0 0 0 0 0 0 0 0 0 0 0 0 0
0 -0 -0 -0 -0 -0 -0 0 0 0 0 0 0 0 0 0 0 0 0 0 0 0 0 0 0 0 0 0 0 0 0 0 0 0 0 0 0 0 0 0 0 0 0 0
Wind_Speed_500mb
11 22 13 11 13 16 10 11 14 13 15 16 26 33 61 68 67 73 78 86 86 82 73 64 59 49 43 42 38 30 26 22 17 16 14 10 7 5 5 7 10 13 15 19
2 15 19 15 17 19 15 12 7 21 14 13 32 33 45 62 71 73 79 87 88 87 80 75 67 55 47 44 40 33 30 25 21 18 15 10 6 2 4 6 9 11 14 21
8 13 11 7 20 17 13 12 18 13 14 14 15 32 58 65 79 83 85 89 92 93 87 80 71 58 52 47 40 36 32 28 24 20 16 11 6 1 3 5 8 11 17 23
8 9 6 13 14 22 22 21 18 11 20 27 28 65 84 92 93 83 84 93 93 94 88 82 72 62 49 47 44 39 36 31 27 23 17 12 7 2 3 6 9 13 19 24
9 6 6 1 7 13 14 18 18 22 17 28 46 43 45 82 98 104 102 98 97 94 90 83 77 65 56 51 48 44 41 35 29 24 19 13 8 3 6 8 11 15 20 26
5 11 19 10 6 10 8 12 11 23 22 25 29 14 11 76 90 88 96 95 97 95 92 85 80 69 63 57 54 52 45 37 31 26 20 14 9 6 8 12 13 17 22 26
4 5 10 10 20 11 12 11 17 28 33 37 13 38 62 67 93 98 97 98 96 95 93 89 81 75 70 60 59 51 44 38 33 28 21 17 12 10 11 12 16 19 22 25
6 6 12 11 4 13 13 17 21 13 16 21 28 53 63 75 89 96 97 98 97 95 93 90 84 80 75 65 52 49 46 42 36 31 26 22 16 14 12 14 18 20 23 26
14 11 11 22 27 8 13 23 24 26 18 10 17 34 55 76 87 101 102 102 99 97 95 92 88 83 76 63 53 53 49 45 40 35 32 26 21 16 15 17 18 21 25 28
7 8 8 9 17 15 7 16 18 12 8 8 2 19 40 71 86 99 104 104 101 101 98 96 92 86 72 60 55 56 54 50 46 42 38 31 25 20 18 18 20 22 25 28
3 9 18 17 19 28 19 15 21 14 10 6 2 9 31 65 83 94 102 104 104 104 100 97 93 87 75 64 57 58 56 54 52 46 41 35 27 22 20 21 22 23 25 28
4 8 5 13 35 33 32 27 21 22 17 6 1 5 6 47 71 89 97 102 101 103 99 96 93 86 78 70 58 55 60 60 55 49 46 38 29 25 23 22 23 24 26 30
6 21 25 34 30 23 31 41 21 23 19 11 5 5 4 9 46 72 86 95 98 99 94 92 91 85 79 74 64 56 57 56 54 50 48 40 32 28 25 24 23 24 26 31
26 32 13 10 10 23 25 38 31 15 16 15 13 7 6 5 8 51 69 73 79 90 92 92 89 85 81 77 68 58 55 52 50 48 44 39 33 31 28 25 22 22 27 30
16 22 22 21 12 17 19 35 37 22 8 20 24 19 13 11 9 12 43 70 76 86 88 90 92 87 83 78 68 60 59 57 53 47 43 38 36 33 29 24 23 26 27 29
17 11 12 22 35 11 19 29 40 33 24 3 16 15 20 19 12 12 12 33 68 81 87 92 91 86 82 77 69 60 59 56 51 47 46 42 39 34 28 24 26 27 27 28
26 21 25 18 13 23 12 8 26 27 29 29 15 17 16 17 17 13 15 20 33 48 65 84 87 84 79 75 69 61 58 57 51 47 46 41 38 34 28 27 26 26 27 29
38 23 22 24 20 14 11 7 16 16 23 27 14 20 20 15 14 20 17 18 39 49 49 62 66 75 77 73 68 61 56 53 51 49 42 42 39 34 31 28 26 27 28 30
9 10 13 15 18 18 9 23 15 19 25 11 15 16 20 16 11 12 18 21 25 52 52 57 61 70 73 70 65 60 56 51 49 44 43 41 41 37 32 29 27 28 29 29
16 17 17 21 16 10 8 17 30 26 28 9 16 9 14 20 16 14 19 21 22 26 36 49 68 73 71 67 63 60 55 50 47 47 47 44 40 37 33 29 28 28 28 29
5 5 6 8 12 15 18 16 9 20 41 29 24 14 15 20 19 18 19 21 22 27 32 43 54 67 71 70 67 63 55 52 50 51 49 44 40 37 33 30 29 28 28 29
6 9 14 16 20 22 20 22 27 30 29 29 30 31 25 22 26 25 27 25 20 26 34 41 57 60 61 68 69 65 60 55 54 55 52 46 42 37 32 30 29 28 28 28
22 25 29 30 32 39 44 48 46 42 42 39 37 35 38 39 40 39 40 32 31 30 31 39 50 64 65 70 71 67 63 60 60 60 55 47 40 35 32 29 29 29 29 29
20 23 28 34 39 47 56 62 58 52 52 56 53 48 46 49 53 56 55 51 48 49 49 47 50 60 73 78 73 69 65 64 62 61 56 47 42 37 33 31 31 30 28 29
23 28 34 39 47 58 65 69 69 69 70 73 73 66 61 59 64 64 64 68 66 58 59 61 57 58 71 83 81 73 67 65 64 60 56 50 43 37 34 33 31 30 30 30
40 46 57 67 75 82 87 88 91 90 90 90 86 76 71 67 68 68 67 70 67 70 69 65 61 58 68 85 88 80 71 63 60 58 55 51 44 39 34 33 32 31 31 31
57 67 80 85 95 105 101 89 86 92 92 89 89 78 74 69 68 73 70 69 70 73 67 61 53 54 61 71 80 80 73 65 64 59 57 50 44 40 36 34 32 32 31 31
Wind_Direction_500mb
175 173 158 160 155 166 155 163 173 181 188 202 178 172 183 178 174 176 183 190 193 194 197 198 198 199 200 202 199 200 202 193 185 181 173 156 136 101 50 34 23 17 10 2
168 175 170 207 200 172 189 169 152 164 221 191 193 182 167 177 178 184 189 192 197 200 199 199 201 202 202 203 201 203 204 196 193 189 178 167 156 119 28 19 8 3 357 358
183 130 93 303 213 186 199 172 179 169 202 155 174 176 183 184 187 191 193 195 200 203 202 202 204 206 208 205 202 206 204 200 196 192 183 177 173 167 19 3 346 350 354 353
173 99 179 248 195 190 193 228 202 211 181 190 200 201 203 196 191 195 195 198 203 206 205 207 208 210 213 208 207 208 206 203 198 195 188 190 186 216 339 331 333 341 343 347
140 174 272 275 171 152 157 242 215 207 216 200 222 211 201 199 203 205 203 206 207 209 209 209 209 211 209 210 210 209 208 204 198 198 198 199 201 246 306 317 322 328 336 335
118 157 220 171 204 136 146 247 231 199 211 209 155 167 223 202 205 205 209 208 207 209 210 212 209 209 209 212 212 211 209 204 200 200 205 209 220 263 292 303 313 319 324 329
122 191 288 254 222 169 193 225 237 216 222 214 183 212 223 213 208 213 211 208 210 210 210 211 209 207 210 214 216 213 210 205 204 207 214 220 228 253 280 296 302 310 317 324
92 91 259 244 184 176 207 220 246 194 203 215 234 235 217 211 210 207 208 206 211 208 209 209 208 208 210 214 218 211 208 207 209 215 223 227 232 253 279 291 300 306 312 320
179 201 220 194 221 299 274 225 226 205 182 205 226 242 216 211 208 208 207 209 209 208 208 207 207 209 210 215 211 206 206 209 215 222 230 231 239 252 270 287 296 300 309 319
81 352 291 250 262 276 226 195 164 166 170 191 234 241 225 215 208 206 206 206 206 204 206 204 205 209 215 212 206 207 207 211 219 227 231 231 237 249 266 284 292 297 309 317
44 329 339 259 29 3 309 229 181 181 171 141 143 23 232 212 205 204 204 204 205 205 206 207 205 207 210 208 206 209 210 214 222 231 234 234 239 249 265 281 291 299 307 314
169 18 321 292 348 353 347 300 229 194 164 176 258 57 9 214 204 200 200 201 203 205 207 207 206 206 207 206 209 213 210 217 225 234 234 235 236 246 261 277 287 298 310 318
12 327 272 275 315 325 353 7 263 198 186 187 264 300 60 102 207 204 202 204 205 206 208 210 207 207 207 207 210 216 217 218 224 232 234 232 234 243 259 271 283 300 310 314
0 4 12 332 290 299 345 350 360 257 212 212 226 219 208 163 149 207 210 212 212 210 210 211 208 210 210 209 211 217 220 221 226 233 234 230 237 244 252 265 285 295 301 311
6 356 357 11 286 271 348 359 12 22 286 226 197 197 202 209 179 184 215 214 215 213 212 211 210 211 211 211 212 218 218 219 224 232 232 232 236 242 251 270 284 290 298 312
334 16 356 9 18 329 299 352 345 358 359 193 162 174 192 209 217 218 217 210 214 213 213 212 214 217 213 212 213 218 222 223 224 230 227 230 232 241 252 267 276 283 297 308
311 319 338 11 6 11 141 10 355 296 324 350 226 216 206 202 207 226 243 243 230 226 224 220 219 217 214 215 215 219 221 219 223 227 227 229 235 242 252 263 272 285 296 304
287 274 283 289 311 340 197 179 353 324 292 320 315 209 221 239 245 239 240 233 225 226 228 222 224 220 215 217 217 219 221 221 224 227 227 228 233 241 251 263 275 284 292 300
247 239 265 297 280 284 249 213 233 357 1 301 298 232 215 212 231 261 252 244 233 226 226 228 228 224 219 219 220 217 221 222 223 223 222 226 232 240 249 260 270 278 288 297
81 68 66 76 86 94 184 226 231 278 311 327 0 256 244 226 215 245 263 260 251 243 241 236 226 223 224 223 221 219 223 223 220 217 217 224 232 238 246 256 266 276 286 294
100 28 29 19 12 19 14 2 295 241 270 279 296 333 244 259 247 247 256 260 242 232 237 234 231 226 225 222 220 220 221 221 218 215 217 223 230 235 245 256 266 274 283 291
240 275 290 307 317 324 327 329 320 314 304 291 272 273 273 264 239 247 249 248 239 234 233 233 230 233 235 226 223 222 221 221 218 215 217 222 228 235 246 257 265 273 282 288
254 268 282 290 299 304 307 308 308 297 296 293 288 281 272 269 266 259 256 244 251 252 247 239 237 237 237 228 227 225 224 223 220 217 218 223 231 238 248 258 265 272 278 287
237 251 264 275 286 295 299 302 303 291 284 283 279 271 270 264 261 263 264 257 258 262 258 254 243 237 234 227 229 228 228 226 224 221 221 225 232 240 248 257 264 270 278 288
272 280 286 291 294 294 294 293 292 289 284 279 276 275 264 256 258 263 266 264 264 266 262 255 250 239 233 229 230 231 231 230 227 224 224 227 234 241 247 257 263 270 278 286
269 282 291 293 292 294 292 287 280 280 281 278 278 276 269 259 251 249 252 257 257 259 259 255 249 236 232 230 228 231 233 232 229 226 230 229 233 238 248 256 261 267 274 283
279 278 287 288 288 289 283 273 266 267 269 267 270 269 270 265 256 247 248 251 251 249 249 249 242 233 231 230 229 230 230 231 230 228 227 227 233 237 244 251 257 264 273 281
Wind_Speed_850mb
11 22 13 11 13 16 10 11 14 13 15 16 26 33 61 68 67 73 78 86 86 82 73 64 59 49 43 42 38 30 26 22 17 16 14 10 7 5 5 7 10 13 15 19
2 15 19 15 17 19 15 12 7 21 14 13 32 33 45 62 71 73 79 87 88 87 80 75 67 55 47 44 40 33 30 25 21 18 15 10 6 2 4 6 9 11 14 21
8 13 11 7 20 17 13 12 18 13 14 14 15 32 58 65 79 83 85 89 92 93 87 80 71 58 52 47 40 36 32 28 24 20 16 11 6 1 3 5 8 11 17 23
8 9 6 13 14 22 22 21 18 11 20 27 28 65 84 92 93 83 84 93 93 94 88 82 72 62 49 47 44 39 36 31 27 23 17 12 7 2 3 6 9 13 19 24
9 6 6 1 7 13 14 18 18 22 17 28 46 43 45 82 98 104 102 98 97 94 90 83 77 65 56 51 48 44 41 35 29 24 19 13 8 3 6 8 11 15 20 26
5 11 19 10 6 10 8 12 11 23 22 25 29 14 11 76 90 88 96 95 97 95 92 85 80 69 63 57 54 52 45 37 31 26 20 14 9 6 8 12 13 17 22 26
4 5 10 10 20 11 12 11 17 28 33 37 13 38 62 67 93 98 97 98 96 95 93 89 81 75 70 60 59 51 44 38 33 28 21 17 12 10 11 12 16 19 22 25
6 6 12 11 4 13 13 17 21 13 16 21 28 53 63 75 89 96 97 98 97 95 93 90 84 80 75 65 52 49 46 42 36 31 26 22 16 14 12 14 18 20 23 26
14 11 11 22 27 8 13 23 24 26 18 10 17 34 55 76 87 101 102 102 99 97 95 92 88 83 76 63 53 53 49 45 40 35 32 26 21 16 15 17 18 21 25 28
7 8 8 9 17 15 7 16 18 12 8 8 2 19 40 71 86 99 104 104 101 101 98 96 92 86 72 60 55 56 54 50 46 42 38 31 25 20 18 18 20 22 25 28
3 9 18 17 19 28 19 15 21 14 10 6 2 9 31 65 83 94 102 104 104 104 100 97 93 87 75 64 57 58 56 54 52 46 41 35 27 22 20 21 22 23 25 28
4 8 5 13 35 33 32 27 21 22 17 6 1 5 6 47 71 89 97 102 101 103 99 96 93 86 78 70 58 55 60 60 55 49 46 38 29 25 23 22 23 24 26 30
6 21 25 34 30 23 31 41 21 23 19 11 5 5 4 9 46 72 86 95 98 99 94 92 91 85 79 74 64 56 57 56 54 50 48 40 32 28 25 24 23 24 26 31
26 32 13 10 10 23 25 38 31 15 16 15 13 7 6 5 8 51 69 73 79 90 92 92 89 85 81 77 68 58 55 52 50 48 44 39 33 31 28 25 22 22 27 30
16 22 22 21 12 17 19 35 37 22 8 20 24 19 13 11 9 12 43 70 76 86 88 90 92 87 83 78 68 60 59 57 53 47 43 38 36 33 29 24 23 26 27 29
17 11 12 22 35 11 19 29 40 33 24 3 16 15 20 19 12 12 12 33 68 81 87 92 91 86 82 77 69 60 59 56 51 47 46 42 39 34 28 24 26 27 27 28
26 21 25 18 13 23 12 8 26 27 29 29 15 17 16 17 17 13 15 20 33 48 65 84 87 84 79 75 69 61 58 57 51 47 46 41 38 34 28 27 26 26 27 29
38 23 22 24 20 14 11 7 16 16 23 27 14 20 20 15 14 20 17 18 39 49 49 62 66 75 77 73 68 61 56 53 51 49 42 42 39 34 31 28 26 27 28 30
9 10 13 15 18 18 9 23 15 19 25 11 15 16 20 16 11 12 18 21 25 52 52 57 61 70 73 70 65 60 56 51 49 44 43 41 41 37 32 29 27 28 29 29
16 17 17 21 16 10 8 17 30 26 28 9 16 9 14 20 16 14 19 21 22 26 36 49 68 73 71 67 63 60 55 50 47 47 47 44 40 37 33 29 28 28 28 29
5 5 6 8 12 15 18 16 9 20 41 29 24 14 15 20 19 18 19 21 22 27 32 43 54 67 71 70 67 63 55 52 50 51 49 44 40 37 33 30 29 28 28 29
6 9 14 16 20 22 20 22 27 30 29 29 30 31 25 22 26 25 27 25 20 26 34 41 57 60 61 68 69 65 60 55 54 55 52 46 42 37 32 30 29 28 28 28
22 25 29 30 32 39 44 48 46 42 42 39 37 35 38 39 40 39 40 32 31 30 31 39 50 64 65 70 71 67 63 60 60 60 55 47 40 35 32 29 29 29 29 29
20 23 28 34 39 47 56 62 58 52 52 56 53 48 46 49 53 56 55 51 48 49 49 47 50 60 73 78 73 69 65 64 62 61 56 47 42 37 33 31 31 30 28 29
23 28 34 39 47 58 65 69 69 69 70 73 73 66 61 59 64 64 64 68 66 58 59 61 57 58 71 83 81 73 67 65 64 60 56 50 43 37 34 33 31 30 30 30
40 46 57 67 75 82 87 88 91 90 90 90 86 76 71 67 68 68 67 70 67 70 69 65 61 58 68 85 88 80 71 63 60 58 55 51 44 39 34 33 32 31 31 31
57 67 80 85 95 105 101 89 86 92 92 89 89 78 74 69 68 73 70 69 70 73 67 61 53 54 61 71 80 80 73 65 64 59 57 50 44 40 36 34 32 32 31 31
Wind_Direction_850mb
175 173 158 160 155 166 155 163 173 181 188 202 178 172 183 178 174 176 183 190 193 194 197 198 198 199 200 202 199 200 202 193 185 181 173 156 136 101 50 34 23 17 10 2
168 175 170 207 200 172 189 169 152 164 221 191 193 182 167 177 178 184 189 192 197 200 199 199 201 202 202 203 201 203 204 196 193 189 178 167 156 119 28 19 8 3 357 358
183 130 93 303 213 186 199 172 179 169 202 155 174 176 183 184 187 191 193 195 200 203 202 202 204 206 208 205 202 206 204 200 196 192 183 177 173 167 19 3 346 350 354 353
173 99 179 248 195 190 193 228 202 211 181 190 200 201 203 196 191 195 195 198 203 206 205 207 208 210 213 208 207 208 206 203 198 195 188 190 186 216 339 331 333 341 343 347
140 174 272 275 171 152 157 242 215 207 216 200 222 211 201 199 203 205 203 206 207 209 209 209 209 211 209 210 210 209 208 204 198 198 198 199 201 246 306 317 322 328 336 335
118 157 220 171 204 136 146 247 231 199 211 209 155 167 223 202 205 205 209 208 207 209 210 212 209 209 209 212 212 211 209 204 200 200 205 209 220 263 292 303 313 319 324 329
122 191 288 254 222 169 193 225 237 216 222 214 183 212 223 213 208 213 211 208 210 210 210 211 209 207 210 214 216 213 210 205 204 207 214 220 228 253 280 296 302 310 317 324
92 91 259 244 184 176 207 220 246 194 203 215 234 235 217 211 210 207 208 206 211 208 209 209 208 208 210 214 218 211 208 207 209 215 223 227 232 253 279 291 300 306 312 320
179 201 220 194 221 299 274 225 226 205 182 205 226 242 216 211 208 208 207 209 209 208 208 207 207 209 210 215 211 206 206 209 215 222 230 231 239 252 270 287 296 300 309 319
81 352 291 250 262 276 226 195 164 166 170 191 234 241 225 215 208 206 206 206 206 204 206 204 205 209 215 212 206 207 207 211 219 227 231 231 237 249 266 284 292 297 309 317
44 329 339 259 29 3 309 229 181 181 171 141 143 23 232 212 205 204 204 204 205 205 206 207 205 207 210 208 206 209 210 214 222 231 234 234 239 249 265 281 291 299 307 314
169 18 321 292 348 353 347 300 229 194 164 176 258 57 9 214 204 200 200 201 203 205 207 207 206 206 207 206 209 213 210 217 225 234 234 235 236 246 261 277 287 298 310 318
12 327 272 275 315 325 353 7 263 198 186 187 264 300 60 102 207 204 202 204 205 206 208 210 207 207 207 207 210 216 217 218 224 232 234 232 234 243 259 271 283 300 310 314
0 4 12 332 290 299 345 350 360 257 212 212 226 219 208 163 149 207 210 212 212 210 210 211 208 210 210 209 211 217 220 221 226 233 234 230 237 244 252 265 285 295 301 311
6 356 357 11 286 271 348 359 12 22 286 226 197 197 202 209 179 184 215 214 215 213 212 211 210 211 211 211 212 218 218 219 224 232 232 232 236 242 251 270 284 290 298 312
334 16 356 9 18 329 299 352 345 358 359 193 162 174 192 209 217 218 217 210 214 213 213 212 214 217 213 212 213 218 222 223 224 230 227 230 232 241 252 267 276 283 297 308
311 319 338 11 6 11 141 10 355 296 324 350 226 216 206 202 207 226 243 243 230 226 224 220 219 217 214 215 215 219 221 219 223 227 227 229 235 242 252 263 272 285 296 304
287 274 283 289 311 340 197 179 353 324 292 320 315 209 221 239 245 239 240 233 225 226 228 222 224 220 215 217 217 219 221 221 224 227 227 228 233 241 251 263 275 284 292 300
247 239 265 297 280 284 249 213 233 357 1 301 298 232 215 212 231 261 252 244 233 226 226 228 228 224 219 219 220 217 221 222 223 223 222 226 232 240 249 260 270 278 288 297
81 68 66 76 86 94 184 226 231 278 311 327 0 256 244 226 215 245 263 260 251 243 241 236 226 223 224 223 221 219 223 223 220 217 217 224 232 238 246 256 266 276 286 294
100 28 29 19 12 19 14 2 295 241 270 279 296 333 244 259 247 247 256 260 242 232 237 234 231 226 225 222 220 220 221 221 218 215 217 223 230 235 245 256 266 274 283 291
240 275 290 307 317 324 327 329 320 314 304 291 272 273 273 264 239 247 249 248 239 234 233 233 230 233 235 226 223 222 221 221 218 215 217 222 228 235 246 257 265 273 282 288
254 268 282 290 299 304 307 308 308 297 296 293 288 281 272 269 266 259 256 244 251 252 247 239 237 237 237 228 227 225 224 223 220 217 218 223 231 238 248 258 265 272 278 287
237 251 264 275 286 295 299 302 303 291 284 283 279 271 270 264 261 263 264 257 258 262 258 254 243 237 234 227 229 228 228 226 224 221 221 225 232 240 248 257 264 270 278 288
272 280 286 291 294 294 294 293 292 289 284 279 276 275 264 256 258 263 266 264 264 266 262 255 250 239 233 229 230 231 231 230 227 224 224 227 234 241 247 257 263 270 278 286
269 282 291 293 292 294 292 287 280 280 281 278 278 276 269 259 251 249 252 257 257 259 259 255 249 236 232 230 228 231 233 232 229 226 230 229 233 238 248 256 261 267 274 283
279 278 287 288 288 289 283 273 266 267 269 267 270 269 270 265 256 247 248 251 251 249 249 249 242 233 231 230 229 230 230 231 230 228 227 227 233 237 244 251 257 264 273 281